Showing default

ICEYE-X49, 62384

Orbit data source: Space-Track

ICEYE-X49, 62384 is a payload satellite owned by ICEYE (FI) in LEO that was launched on Sat, 21 Dec 2024 UTC via an FALCON 9 launch vehicle from the Air Force Western Test Range (AFWTR). Payload-class satellites include a variety of spacecraft equipped with specific instruments for various scientific and technological missions. These include communications satellites like Starlink; space stations such as the ISS; scientific satellites like the Hubble; Earth observation satellites from companies like Planet Labs, Umbra, and HawkEye 360; GPS; miniature CubeSats for education and research; and military/defense satellites.

Loading next visibility...
Identifier
62384, 2024-247H
Orbit
LEO
Country
Flag of FIFI / FIN
Related business
Manufacturer
ICEYE
Mission
Operational Commercial Radar Imaging
Bus & Motor
ICEYE, Unknown motor
Mass
80 kg wet, 80 kg dry
Launch date (UTC)
2024-12-21 (1 year ago)
Launch vehicle
FALCON 9
Launch site
Air Force Western Test Range (AFWTR)
Object type
Payload
Rocket body
Debris
Shape & HBR
Box + 1 Pan, 2.4 m
Radar Cross Section
0.776 m², Medium (>0.1 m² and < 1m²)

Expand to show TLE details & history
Last TLE update: 8 hours ago

TLE from 8 hours ago
0 ICEYE-X49
1 62384U 24247H   26094.20574040  .00012445  00000-0  71886-3 0  9994
2 62384  44.9995  32.1543 0001213 306.3557  53.7208 15.12371355 70970
Epoch: 2026-04-04T04:56Z
TLE epoch observation values (Epoch: 2026-04-04T04:56:15.970Z)
Latitude
-0.00003°
Longitude
125.55888°
Altitude
528.473 km
Speed
7.601 km/s
True Right ascension
02h 08m 37s
True Declination
0° 00' 00"
Sunlit
Object was in daylight at epoch
Visualization orbit readout
Latitude
Unknown
Longitude
Unknown
Altitude
Unknown
Speed
Unknown
Apparent Right ascension
Unknown
Apparent Declination
Unknown
Sunlit
N/A
Visualization observer readout
Local Sidereal Time
19:11:26
Azimuth
Unknown
Elevation
Unknown
Doppler factor
Unknown
Orbital elements
Apogee altitude
531.407 km
Perigee altitude
529.731 km
Semi-major axis
6,908.706 km
Eccentricity
0.00012
Inclination
44.9995°
RAAN
32.1543°
Arg. of periapsis
306.3557°
True anomaly
53.73201°
Mean anomaly
53.7208°
Eccentric anomaly
53.7264°
Mean motion
3.77962 °/min
Orbital period
95.25 mins
BSTAR
0.00071886
Loading maneuver chart data...
Computing Atmospheric mass density...
Loading historical data...
Loading historical data...
Loading historical data...
Loading historical data...
Loading historical data...
Loading historical data...
Loading historical data...

Documentation

Showing up to 5 results
|